Regional Weather Roundup
Issued by NWS Cleveland, OH

Home | Current Version | Previous Version | Graphics & Text | Print | Product List | Glossary On
Versions: 1 2 3 4 5 6 7 8 9 10 11 12 13 14 15 16 17 18 19 20 21 22 23 24 25 26 27 28 29 30 31 32 33 34 35 36 37 38 39 40 41 42 43 44 45 46 47 48 49 50
324
ASUS41 KCLE 210500
RWRCLE
OHIO REGIONAL WEATHER ROUNDUP
NATIONAL WEATHER SERVICE WILMINGTON, OH
100 AM EDT MON AUG 21 2017

NOTE: "FAIR" INDICATES FEW OR NO CLOUDS BELOW 12,000 FEET WITH NO
SIGNIFICANT WEATHER AND/OR OBSTRUCTIONS TO VISIBILITY.

OHZ001>008-015>018-024>027-034-035-043-044-210600-
   NORTHWEST OHIO

CITY           SKY/WX    TMP DP  RH WIND       PRES   REMARKS
DEFIANCE       FAIR      70  67  90 SW5       30.09R
FINDLAY        FAIR      70  66  87 S5        30.10R FOG
TOLEDO EXPRESS FAIR      70  69  97 E3        30.08S
TOLEDO EXEC    FAIR      72  69  90 S3        30.10R
LIMA           FAIR      70  67  90 SW3       30.12R
$$

OHZ009>014-019>023-028>033-038-089-210600-
   NORTHEAST OHIO

CITY           SKY/WX    TMP DP  RH WIND       PRES   REMARKS
CLE-HOPKINS    MOCLDY    77  65  66 S8        30.12R
CLE-LAKEFRONT  FAIR      78  62  57 S10       30.08S
CUY CO. ARPT   NOT AVBL
LORAIN-ELYRIA    N/A    N/A N/A N/A MISG      30.11R
ASHTABULA      FAIR      69  61  75 SE5       30.15S
AKRON-CANTON   FAIR      74  63  68 S8        30.14R
WOOSTER        NOT AVBL
MANSFIELD      FAIR      71  68  90 S5        30.14R
YOUNGSTOWN     MOCLDY    71  60  68 SE7       30.15S
$$

OHZ042-051>053-060>062-070>072-077>081-210600-
  SOUTHWEST OHIO

CITY           SKY/WX    TMP DP  RH WIND       PRES   REMARKS
CINC-COVINGTON FAIR      74  70  87 S7        30.12S
CINC-LUNKEN    FAIR      71  70  96 CALM      30.12R
HAMILTON       FAIR      69  68  96 CALM      30.13R
DAYTON         NOT AVBL
WRIGHT-PAT AFB NOT AVBL
DAYTON GENERAL FAIR      75  63  66 CALM      30.13R
WILMINGTON     FAIR      72  69  90 CALM      30.14R
$$

OHZ036-037-039>041-045>050-054>059-063>069-073>076-082>088-210600-
  CENTRAL AND SOUTHEAST OHIO

CITY           SKY/WX    TMP DP  RH WIND       PRES   REMARKS
COLUMBUS       FAIR      77  71  82 S3        30.12R
OSU AIRPORT    CLOUDY    75  69  81 S3        30.13R
BOLTON FIELD   NOT AVBL
RICKENBACK AFB NOT AVBL
NEWARK         FAIR      70  68  93 CALM      30.13R FOG
MARION         FAIR      69  67  93 S5        30.12R
LANCASTER      FAIR      69  69 100 CALM      30.13R
ZANESVILLE     FAIR      74  67  78 CALM      30.14R
NEW PHILLY     FAIR      69  68  96 SE5       30.14S
$$




USA.gov is the U.S. government's official web portal to all federal, state and local government web resources and services.